הכול
Barimunya Airport (Barimunya, Western Australia) BYP מזג אוויר
|
Barimunya, Western Australia (BYP / YBRY)
שמים בהירים
רוחות קלות |
|
18 °C |
BYP Terminal Area Forecast
| Date | Time (AWST) | Flight Rules | Wind Dir. | Speed | Type | Height AGL (ft) | Visibility | Remarks | ||||||
|---|---|---|---|---|---|---|---|---|---|---|---|---|---|---|
Recent BYP METAR history
| Date | Time (AWST) | Flight Rules | Wind Dir. | Speed | Type | Height AGL (ft) | Visibility | Temp (°C) | Temp (°F) | Dew Point (°C) | Dew Point (°F) | Rel. Humid. | Pressure | Density Altitude | Remarks |
|---|---|---|---|---|---|---|---|---|---|---|---|---|---|---|---|
| 06-מאי | 00:00 | VFR | 130° | 10 kt | 10000 meters | 18° | 64° | 1° | 33° | 32% | 1020 mb | 2,637 ft | |||
| 05-מאי | 23:00 | VFR | 130° | 9 kt | 10000 meters | 18° | 64° | 0° | 32° | 30% | 1021 mb | 2,607 ft | |||
| 05-מאי | 22:00 | VFR | 140° | 5 kt | 10000 meters | 18° | 64° | 0° | 32° | 30% | 1021 mb | 2,607 ft | |||
| 05-מאי | 21:00 | VFR | 120° | 5 kt | 10000 meters | 19° | 66° | 0° | 32° | 28% | 1021 mb | 2,727 ft | |||
| 05-מאי | 20:00 | VFR | 120° | 5 kt | 10000 meters | 20° | 68° | 0° | 32° | 26% | 1021 mb | 2,847 ft | |||
| 05-מאי | 19:00 | VFR | 140° | 5 kt | 10000 meters | 21° | 69° | 0° | 32° | 25% | 1020 mb | 2,997 ft | |||
| 05-מאי | 18:00 | VFR | 110° | 7 kt | 10000 meters | 22° | 71° | 0° | 32° | 23% | 1020 mb | 3,117 ft | |||
| 05-מאי | 17:00 | VFR | 130° | 10 kt | 10000 meters | 23° | 73° | -1° | 30° | 20% | 1019 mb | 3,266 ft | |||
| 05-מאי | 16:00 | VFR | 100° | 9 kt | 10000 meters | 23° | 73° | -2° | 28° | 19% | 1019 mb | 3,266 ft | |||
| 05-מאי | 15:00 | VFR | 130° | 9 kt | 10000 meters | 24° | 75° | 0° | 32° | 20% | 1019 mb | 3,386 ft | |||
| 05-מאי | 14:00 | VFR | 120° | 10 kt | 10000 meters | 23° | 73° | 0° | 32° | 22% | 1019 mb | 3,266 ft | |||
| 05-מאי | 13:00 | VFR | 160° | 6 kt | 10000 meters | 22° | 71° | 0° | 32° | 23% | 1020 mb | 3,117 ft | |||
| 05-מאי | 12:00 | VFR | 130° | 11 kt | 10000 meters | 22° | 71° | 0° | 32° | 23% | 1021 mb | 3,087 ft | |||
| 05-מאי | 11:00 | VFR | 120° | 13 kt | 10000 meters | 21° | 69° | 1° | 33° | 26% | 1021 mb | 2,967 ft | |||
| gap in available data | |||||||||||||||
| 05-מאי | 09:00 | VFR | 100° | 13 kt | 10000 meters | 18° | 64° | 2° | 35° | 34% | 1023 mb | 2,548 ft | |||
| 05-מאי | 08:00 | VFR | 120° | 18 kt | 10000 meters | 17° | 62° | 2° | 35° | 36% | 1022 mb | 2,458 ft | |||
| 05-מאי | 07:00 | VFR | 120° | 12 kt | 10000 meters | 15° | 59° | 2° | 35° | 41% | 1022 mb | 2,218 ft | |||
| 05-מאי | 06:00 | VFR | 130° | 8 kt | 10000 meters | 15° | 59° | 2° | 35° | 41% | 1022 mb | 2,218 ft | |||
| 05-מאי | 05:00 | VFR | 130° | 8 kt | 10000 meters | 15° | 59° | 1° | 33° | 39% | 1021 mb | 2,247 ft | |||
| 05-מאי | 04:00 | VFR | 130° | 10 kt | 10000 meters | 15° | 59° | 0° | 32° | 36% | 1021 mb | 2,247 ft | |||
| 05-מאי | 03:00 | VFR | 120° | 11 kt | 10000 meters | 16° | 60° | 0° | 32° | 34% | 1021 mb | 2,367 ft | |||
| 05-מאי | 02:00 | VFR | 130° | 12 kt | 10000 meters | 17° | 62° | 0° | 32° | 32% | 1021 mb | 2,487 ft | |||
| 05-מאי | 01:00 | VFR | 110° | 11 kt | 10000 meters | 18° | 64° | -1° | 30° | 28% | 1021 mb | 2,607 ft | |||
| 05-מאי | 00:00 | VFR | 130° | 10 kt | 10000 meters | 18° | 64° | -2° | 28° | 26% | 1021 mb | 2,607 ft | |||
כניסה לאתר
| אין תמיכה בדפדפן שלך. שדרג את הדפדפן שלך |
